Terminal Aerodrome Forecast
Issued by NWS

Home | Current Version | Previous Version | Text Only | Print | Product List | Glossary On
Versions: 1 2 3 4 5 6 7 8 9 10 11 12 13 14 15 16 17 18 19 20 21 22
000
FTUS41 KOKX 030500
TAFSWF
TAF
KSWF 030530Z 0306/0412 33011KT P6SM SKC
     FM030700 33006KT P6SM SCT250
     FM031500 VRB03KT P6SM FEW015 SCT150
     FM031800 16006KT P6SM SCT020 BKN120
     FM032100 16008KT 4SM -SN BKN020 OVC060
     FM040000 17009KT 2SM -SNPL OVC009
     FM040300 19009KT 1SM FZRAPL OVC005
     FM040600 23008KT 1SM -FZRA OVC005 WS020/24040KT
      AMD NOT SKED=

USA.gov is the U.S. government's official web portal to all federal, state and local government web resources and services.